Regional Weather Roundup
Issued by NWS

Home | Current Version | Previous Version | Text Only | Print | Product List | Glossary Off
Versions: 1 2 3 4 5 6 7 8 9 10 11 12 13 14 15 16 17 18 19 20 21 22 23 24 25 26 27 28 29 30 31 32 33 34 35 36 37 38 39 40 41 42 43 44 45 46 47 48 49 50

000
ASUS43 KOAX 300102
RWRNE

WEATHER ROUNDUP FOR NEBRASKA
NATIONAL WEATHER SERVICE OMAHA NE
800 PM CDT MON AUG 29 2016

NOTES: SATELLITE DATA IS BEING USED TO AUGMENT CLOUD COVER ABOVE
       12000 FEET.
       "FAIR" INDICATES FEW OR NO CLOUDS BELOW 12,000 FEET WITH NO
       SIGNIFICANT WEATHER AND/OR OBSTRUCTIONS TO VISIBILITY.

  * THESE STATIONS DO NOT REPORT WEATHER SUCH AS RAIN...SNOW OR FOG.

NEZ001>004-019>022-054>056-300200-
NEBRASKA PANHANDLE

CITY           SKY/WX    TMP DP  RH WIND       PRES   REMARKS
SCOTTSBLUFF    CLOUDY    76  59  55 E10       30.23F
ALLIANCE       PTCLDY    71  61  70 CALM      30.23F
CHADRON        MOCLDY    83  56  39 E9        30.21R
KIMBALL        CLOUDY    69  58  65 SE6       30.30S
SIDNEY         PTCLDY    69  60  73 SE6       30.27F
$$

NEZ057>060-069>072-079>082-300200-
SOUTHWEST NEBRASKA

CITY           SKY/WX    TMP DP  RH WIND       PRES   REMARKS
NORTH PLATTE   CLOUDY    74  67  78 CALM      30.20S
IMPERIAL       PTCLDY    74  61  63 S7        30.22S
LEXINGTON      CLOUDY    76  67  75 SE6       30.20S
MCCOOK         MOCLDY    75  65  70 SE5       30.20S
$$

NEZ005>010-023>029-035>040-094-300200-
NORTH CENTRAL NEBRASKA

CITY           SKY/WX    TMP DP  RH WIND       PRES   REMARKS
VALENTINE      CLOUDY    80  61  52 S6        30.17S
AINSWORTH      CLOUDY    74  65  71 S6        30.18S
BROKEN BOW     PTCLDY    74  67  78 SW5       30.18F
O`NEILL        CLOUDY    78  64  61 SE5       30.17S
ORD            MOCLDY    78  64  61 SE3       30.16F
THEDFORD       CLOUDY    77  63  61 S3        30.21S
$$

NEZ041-046>049-061>064-073>077-083>087-300200-
SOUTH CENTRAL NEBRASKA

CITY           SKY/WX    TMP DP  RH WIND       PRES   REMARKS
GRAND ISLAND   CLOUDY    74  63  68 SE6       30.20R
AURORA         DRIZZLE   70  69  97 NE3       30.20R
HASTINGS       LGT RAIN  70  67  90 S5        30.20F
HEBRON         CLOUDY    71  66  86 CALM      30.18R
HOLDREGE       CLOUDY    75  68  77 SE5       30.20S
KEARNEY *      MOCLDY    73  63  68 SE9       30.18F
YORK           CLOUDY    72  68  88 SE8       30.21R
$$

NEZ011>018-030>034-042>045-300200-
NORTHEAST NEBRASKA

CITY           SKY/WX    TMP DP  RH WIND       PRES   REMARKS
NORFOLK        CLOUDY    73  65  75 S9        30.16S
ALBION         CLOUDY    73  65  76 SE5       30.19R
BLAIR          TSTM      72  69  90 W8G17     30.20R
FREMONT        CLOUDY    71  68  92 E13       30.19R
TEKAMAH        LGT RAIN  73  69  87 SE14G22   30.17R
WAYNE          LGT RAIN  74  67  77 W17G25    30.16S
$$

NEZ050>053-065>068-078-088>093-300200-
SOUTHEAST NEBRASKA

CITY           SKY/WX    TMP DP  RH WIND       PRES   REMARKS
LINCOLN        CLOUDY    73  68  84 N7        30.17R
OMAHA EPPLEY   CLOUDY    73  68  84 CALM      30.18R
BEATRICE       CLOUDY    70  69  95 NW6       30.15S
FALLS CITY     LGT RAIN  80  71  74 CALM      30.11R
NEBRASKA CITY  CLOUDY    76  69  78 NW8       30.16R
PLATTSMOUTH    TSTM      70  68  93 NW15G25   30.18R
$$

NEZ044-045-051>053-067-300200-
OMAHA AREA

CITY           SKY/WX    TMP DP  RH WIND       PRES   REMARKS
OMAHA EPPLEY   CLOUDY    73  68  84 CALM      30.18R
BLAIR          TSTM      72  69  90 W8G17     30.20R
FREMONT        CLOUDY    71  68  92 E13       30.19R
MILLARD        TSTM     N/A N/A N/A S6        30.18R
OFFUTT AFB     TSTM      72  70  93 SW10G24   30.19R
PLATTSMOUTH    TSTM      70  68  93 NW15G25   30.18R
WAHOO          FAIR      72  70  95 E6        30.16F FOG
$$




USA.gov is the U.S. government's official web portal to all federal, state and local government web resources and services.